| time (UTC) | temp F | wind direction | speed MPH | gust MPH | rain 1hr in | rain 24hr in | rain mn in | humidity % | barometer mb |
| 20260510082333 | 77 | 300 | 0.0 | 0.0 | 0.00 | 0.00 | 0.00 | 86 | 1015.1 |
| 20260510081854 | 77 | 300 | 0.0 | 0.0 | 0.00 | 0.00 | 0.00 | 86 | 1015.0 |
| 20260510081326 | 78 | 300 | 0.0 | 0.0 | 0.00 | 0.00 | 0.00 | 86 | 1015.1 |
| 20260510080840 | 78 | 300 | 0.0 | 0.0 | 0.00 | 0.00 | 0.00 | 86 | 1015.1 |
| 20260510080331 | 78 | 300 | 0.0 | 0.0 | 0.00 | 0.00 | 0.00 | 86 | 1015.0 |
| 20260510075826 | 78 | 300 | 0.0 | 0.0 | 0.00 | 0.00 | 0.00 | 86 | 1015.0 |
| 20260510075337 | 78 | 300 | 0.0 | 0.0 | 0.00 | 0.00 | 0.00 | 86 | 1015.0 |
| 20260510074831 | 78 | 300 | 0.0 | 0.0 | 0.00 | 0.00 | 0.00 | 86 | 1015.1 |
| 20260510074343 | 78 | 300 | 0.0 | 0.0 | 0.00 | 0.00 | 0.00 | 86 | 1015.0 |
| 20260510073831 | 78 | 300 | 0.0 | 0.0 | 0.00 | 0.00 | 0.00 | 86 | 1015.0 |
| 20260510073323 | 78 | 300 | 0.0 | 0.0 | 0.00 | 0.00 | 0.00 | 86 | 1015.1 |
| 20260510072835 | 78 | 300 | 0.0 | 0.0 | 0.00 | 0.00 | 0.00 | 86 | 1015.2 |
| 20260510072329 | 78 | 300 | 0.0 | 0.0 | 0.00 | 0.00 | 0.00 | 86 | 1015.2 |
| 20260510071832 | 78 | 300 | 0.0 | 0.0 | 0.00 | 0.00 | 0.00 | 85 | 1015.3 |
| 20260510071341 | 78 | 300 | 0.0 | 0.0 | 0.00 | 0.00 | 0.00 | 85 | 1015.2 |
| 20260510070844 | 78 | 300 | 0.0 | 0.0 | 0.00 | 0.00 | 0.00 | 85 | 1015.2 |
| 20260510070345 | 78 | 300 | 0.0 | 0.0 | 0.00 | 0.00 | 0.00 | 85 | 1015.2 |
| 20260510065838 | 78 | 300 | 0.0 | 0.0 | 0.00 | 0.00 | 0.00 | 85 | 1015.0 |
| 20260510065330 | 78 | 300 | 0.0 | 0.0 | 0.00 | 0.00 | 0.00 | 85 | 1015.2 |
| 20260510064839 | 78 | 300 | 0.0 | 0.0 | 0.00 | 0.00 | 0.00 | 85 | 1015.3 |
| 20260510064331 | 78 | 300 | 0.0 | 0.0 | 0.00 | 0.00 | 0.00 | 84 | 1015.3 |
| 20260510063906 | 78 | 300 | 0.0 | 0.0 | 0.00 | 0.00 | 0.00 | 84 | 1015.3 |
| 20260510063356 | 79 | 300 | 0.0 | 0.0 | 0.00 | 0.00 | 0.00 | 84 | 1015.3 |
| 20260510062834 | 79 | 300 | 0.0 | 0.0 | 0.00 | 0.00 | 0.00 | 84 | 1015.3 |
| 20260510062352 | 79 | 300 | 0.0 | 0.0 | 0.00 | 0.00 | 0.00 | 84 | 1015.4 |
| 20260510061820 | 79 | 300 | 0.0 | 0.0 | 0.00 | 0.00 | 0.00 | 83 | 1015.4 |
| 20260510061331 | 79 | 300 | 0.0 | 0.0 | 0.00 | 0.00 | 0.00 | 83 | 1015.6 |
| 20260510060822 | 79 | 300 | 0.0 | 0.0 | 0.00 | 0.00 | 0.00 | 83 | 1015.6 |
| 20260510060330 | 80 | 300 | 0.0 | 1.0 | 0.00 | 0.00 | 0.00 | 83 | 1015.6 |
| 20260510055823 | 80 | 300 | 0.0 | 1.0 | 0.00 | 0.00 | 0.00 | 83 | 1015.6 |
| 20260510055345 | 80 | 300 | 0.0 | 1.0 | 0.00 | 0.00 | 0.00 | 83 | 1015.6 |
| 20260510054837 | 80 | 152 | 0.0 | 0.0 | 0.00 | 0.00 | 0.00 | 83 | 1015.6 |
| 20260510054346 | 80 | 152 | 0.0 | 0.0 | 0.00 | 0.00 | 0.00 | 83 | 1015.7 |
| 20260510053856 | 80 | 152 | 0.0 | 0.0 | 0.00 | 0.00 | 0.00 | 83 | 1015.7 |
| 20260510053328 | 80 | 153 | 0.0 | 0.0 | 0.00 | 0.00 | 0.00 | 83 | 1015.6 |
| 20260510052822 | 80 | 152 | 0.0 | 0.0 | 0.00 | 0.00 | 0.00 | 83 | 1015.7 |
| 20260510052323 | 80 | 152 | 0.0 | 0.0 | 0.00 | 0.00 | 0.00 | 83 | 1015.8 |
| 20260510051833 | 80 | 152 | 0.0 | 0.0 | 0.00 | 0.00 | 0.00 | 83 | 1016.0 |
| 20260510051327 | 80 | 152 | 0.0 | 0.0 | 0.00 | 0.00 | 0.00 | 83 | 1015.9 |
| 20260510050835 | 80 | 153 | 0.0 | 0.0 | 0.00 | 0.00 | 0.00 | 83 | 1016.0 |
| 20260510050330 | 80 | 152 | 0.0 | 0.0 | 0.00 | 0.00 | 0.00 | 82 | 1016.0 |
| 20260510045822 | 80 | 152 | 0.0 | 0.0 | 0.00 | 0.00 | 0.00 | 82 | 1016.1 |
| 20260510045344 | 80 | 152 | 0.0 | 0.0 | 0.00 | 0.00 | 0.00 | 82 | 1016.0 |
| 20260510044824 | 80 | 153 | 0.0 | 0.0 | 0.00 | 0.00 | 0.00 | 81 | 1016.2 |
| 20260510044333 | 80 | 152 | 0.0 | 0.0 | 0.00 | 0.00 | 0.00 | 81 | 1016.1 |
| 20260510043824 | 81 | 152 | 0.0 | 0.0 | 0.00 | 0.00 | 0.00 | 81 | 1016.2 |
| 20260510043344 | 81 | 152 | 0.0 | 0.0 | 0.00 | 0.00 | 0.00 | 80 | 1016.2 |
| 20260510042900 | 81 | 152 | 0.0 | 0.0 | 0.00 | 0.00 | 0.00 | 80 | 1016.3 |
| 20260510042407 | 81 | 152 | 0.0 | 0.0 | 0.00 | 0.00 | 0.00 | 80 | 1016.2 |
| 20260510041846 | 81 | 152 | 0.0 | 0.0 | 0.00 | 0.00 | 0.00 | 79 | 1016.3 |
| 20260510041326 | 81 | 152 | 0.0 | 0.0 | 0.00 | 0.00 | 0.00 | 79 | 1016.3 |
| 20260510040836 | 81 | 152 | 0.0 | 0.0 | 0.00 | 0.00 | 0.00 | 79 | 1016.2 |
| 20260510040347 | 81 | 152 | 0.0 | 0.0 | 0.00 | 0.00 | 0.00 | 79 | 1016.2 |
| 20260510035831 | 81 | 152 | 0.0 | 0.0 | 0.00 | 0.00 | 0.00 | 78 | 1016.2 |
| 20260510035334 | 82 | 152 | 0.0 | 0.0 | 0.00 | 0.00 | 0.00 | 78 | 1016.2 |
| 20260510034846 | 82 | 150 | 0.0 | 1.0 | 0.00 | 0.00 | 0.00 | 78 | 1016.2 |
| 20260510034340 | 82 | 142 | 0.0 | 1.0 | 0.00 | 0.00 | 0.00 | 78 | 1016.0 |
| 20260510033833 | 83 | 142 | 0.0 | 1.0 | 0.00 | 0.00 | 0.00 | 77 | 1016.1 |
| 20260510033324 | 83 | 142 | 0.0 | 0.0 | 0.00 | 0.00 | 0.00 | 77 | 1016.1 |
| 20260510032835 | 83 | 142 | 0.0 | 1.0 | 0.00 | 0.00 | 0.00 | 77 | 1016.0 |
| 20260510032326 | 83 | 142 | 0.0 | 1.0 | 0.00 | 0.00 | 0.00 | 77 | 1015.9 |
| 20260510031857 | 83 | 152 | 0.0 | 0.0 | 0.00 | 0.00 | 0.00 | 77 | 1015.8 |
| 20260510031331 | 83 | 152 | 0.0 | 0.0 | 0.00 | 0.00 | 0.00 | 77 | 1015.8 |
| 20260510030823 | 83 | 151 | 0.0 | 2.0 | 0.00 | 0.00 | 0.00 | 77 | 1015.7 |
| 20260510030332 | 83 | 151 | 0.0 | 2.0 | 0.00 | 0.00 | 0.00 | 77 | 1015.7 |
| 20260510025826 | 83 | 141 | 0.0 | 0.0 | 0.00 | 0.00 | 0.00 | 77 | 1015.6 |
| 20260510025329 | 83 | 158 | 0.0 | 2.0 | 0.00 | 0.00 | 0.00 | 77 | 1015.6 |
| 20260510024820 | 83 | 161 | 1.0 | 3.0 | 0.00 | 0.00 | 0.00 | 77 | 1015.5 |
| 20260510024335 | 83 | 148 | 0.0 | 3.0 | 0.00 | 0.00 | 0.00 | 77 | 1015.5 |
| 20260510023821 | 83 | 148 | 1.0 | 3.0 | 0.00 | 0.00 | 0.00 | 77 | 1015.5 |
| 20260510022822 | 83 | 209 | 0.0 | 0.0 | 0.00 | 0.00 | 0.00 | 77 | 1015.4 |
| 20260510022343 | 83 | 147 | 0.0 | 1.0 | 0.00 | 0.00 | 0.00 | 77 | 1015.4 |
| 20260510021844 | 83 | 174 | 0.0 | 4.0 | 0.00 | 0.00 | 0.00 | 77 | 1015.4 |
| 20260510021326 | 83 | 169 | 1.0 | 4.0 | 0.00 | 0.00 | 0.00 | 77 | 1015.2 |
| 20260510020835 | 83 | 165 | 0.0 | 3.0 | 0.00 | 0.00 | 0.00 | 77 | 1015.0 |
| 20260510020347 | 83 | 105 | 1.0 | 5.0 | 0.00 | 0.00 | 0.00 | 77 | 1014.8 |
| 20260510015820 | 84 | 162 | 1.0 | 5.0 | 0.00 | 0.00 | 0.00 | 77 | 1014.7 |
| 20260510015335 | 84 | 146 | 2.0 | 6.0 | 0.00 | 0.00 | 0.00 | 77 | 1014.6 |
| 20260510014830 | 84 | 147 | 2.0 | 6.0 | 0.00 | 0.00 | 0.00 | 77 | 1014.6 |
| 20260510014357 | 84 | 162 | 2.0 | 5.0 | 0.00 | 0.00 | 0.00 | 77 | 1014.5 |
| 20260510013857 | 84 | 170 | 3.0 | 6.0 | 0.00 | 0.00 | 0.00 | 77 | 1014.5 |
| 20260510013404 | 84 | 148 | 2.0 | 6.0 | 0.00 | 0.00 | 0.00 | 77 | 1014.5 |
| 20260510012836 | 84 | 110 | 2.0 | 5.0 | 0.00 | 0.00 | 0.00 | 77 | 1014.5 |
| 20260510012336 | 84 | 178 | 1.0 | 6.0 | 0.00 | 0.00 | 0.00 | 77 | 1014.5 |
| 20260510011826 | 84 | 188 | 3.0 | 6.0 | 0.00 | 0.00 | 0.00 | 77 | 1014.4 |
| 20260510011321 | 84 | 139 | 3.0 | 6.0 | 0.00 | 0.00 | 0.00 | 77 | 1014.2 |
| 20260510010835 | 84 | 113 | 2.0 | 7.0 | 0.00 | 0.00 | 0.00 | 77 | 1014.2 |
| 20260510010328 | 84 | 136 | 2.0 | 7.0 | 0.00 | 0.00 | 0.00 | 77 | 1014.1 |
| 20260510005822 | 84 | 117 | 3.0 | 6.0 | 0.00 | 0.00 | 0.00 | 77 | 1014.0 |
| 20260510005333 | 84 | 189 | 2.0 | 6.0 | 0.00 | 0.00 | 0.00 | 77 | 1014.0 |
| 20260510004855 | 84 | 152 | 2.0 | 6.0 | 0.00 | 0.00 | 0.00 | 77 | 1013.8 |
| 20260510004330 | 84 | 176 | 2.0 | 6.0 | 0.00 | 0.00 | 0.00 | 77 | 1013.8 |
| 20260510003844 | 84 | 141 | 2.0 | 7.0 | 0.00 | 0.00 | 0.00 | 76 | 1013.7 |
| 20260510003333 | 85 | 120 | 3.0 | 7.0 | 0.00 | 0.00 | 0.00 | 76 | 1013.7 |
| 20260510002826 | 85 | 172 | 2.0 | 8.0 | 0.00 | 0.00 | 0.00 | 76 | 1013.5 |
| 20260510002320 | 85 | 116 | 4.0 | 7.0 | 0.00 | 0.00 | 0.00 | 76 | 1013.4 |
| 20260510001846 | 85 | 153 | 3.0 | 7.0 | 0.00 | 0.00 | 0.00 | 75 | 1013.3 |
| 20260510001338 | 85 | 133 | 2.0 | 10.0 | 0.00 | 0.00 | 0.00 | 75 | 1013.2 |
| 20260510000850 | 85 | 148 | 4.0 | 9.0 | 0.00 | 0.00 | 0.00 | 75 | 1013.1 |
| 20260510000343 | 85 | 174 | 5.0 | 9.0 | 0.00 | 0.00 | 0.00 | 75 | 1013.0 |
| 20260509235835 | 85 | 156 | 3.0 | 8.0 | 0.00 | 0.00 | 0.00 | 75 | 1012.9 |
| 20260509235328 | 86 | 149 | 3.0 | 9.0 | 0.00 | 0.00 | 0.00 | 74 | 1012.9 |
| 20260509234821 | 86 | 132 | 5.0 | 11.0 | 0.00 | 0.00 | 0.00 | 73 | 1012.9 |
| 20260509234332 | 86 | 142 | 4.0 | 8.0 | 0.00 | 0.00 | 0.00 | 73 | 1012.8 |
| 20260509233827 | 86 | 138 | 4.0 | 7.0 | 0.00 | 0.00 | 0.00 | 73 | 1012.8 |
| 20260509233341 | 86 | 155 | 2.0 | 9.0 | 0.00 | 0.00 | 0.00 | 74 | 1012.8 |
| 20260509232835 | 86 | 154 | 4.0 | 9.0 | 0.00 | 0.00 | 0.00 | 73 | 1012.9 |
| 20260509232328 | 86 | 115 | 6.0 | 10.0 | 0.00 | 0.00 | 0.00 | 73 | 1012.8 |
| 20260509231327 | 87 | 148 | 4.0 | 9.0 | 0.00 | 0.00 | 0.00 | 72 | 1012.6 |
| 20260509230821 | 87 | 132 | 5.0 | 10.0 | 0.00 | 0.00 | 0.00 | 71 | 1012.6 |
| 20260509230335 | 87 | 122 | 5.0 | 11.0 | 0.00 | 0.00 | 0.00 | 71 | 1012.5 |
| 20260509225847 | 87 | 136 | 6.0 | 11.0 | 0.00 | 0.00 | 0.00 | 71 | 1012.5 |
| 20260509225355 | 87 | 111 | 6.0 | 9.0 | 0.00 | 0.00 | 0.00 | 72 | 1012.5 |
| 20260509224827 | 88 | 120 | 6.0 | 10.0 | 0.00 | 0.00 | 0.00 | 71 | 1012.5 |
| 20260509224349 | 88 | 149 | 6.0 | 10.0 | 0.00 | 0.00 | 0.00 | 69 | 1012.6 |
| 20260509223841 | 88 | 153 | 4.0 | 8.0 | 0.00 | 0.00 | 0.00 | 69 | 1012.6 |
| 20260509223336 | 88 | 142 | 5.0 | 8.0 | 0.00 | 0.00 | 0.00 | 69 | 1012.7 |
| 20260509222830 | 88 | 158 | 4.0 | 10.0 | 0.00 | 0.00 | 0.00 | 70 | 1012.6 |
| 20260509222339 | 88 | 145 | 6.0 | 10.0 | 0.00 | 0.00 | 0.00 | 69 | 1012.7 |
| 20260509221820 | 88 | 122 | 6.0 | 10.0 | 0.00 | 0.00 | 0.00 | 70 | 1012.5 |
| 20260509221323 | 89 | 117 | 5.0 | 10.0 | 0.00 | 0.00 | 0.00 | 69 | 1012.5 |
| 20260509220846 | 89 | 153 | 6.0 | 10.0 | 0.00 | 0.00 | 0.00 | 68 | 1012.5 |
| 20260509220339 | 89 | 140 | 3.0 | 10.0 | 0.00 | 0.00 | 0.00 | 68 | 1012.4 |
| 20260509215830 | 89 | 115 | 6.0 | 11.0 | 0.00 | 0.00 | 0.00 | 69 | 1012.3 |
| 20260509215322 | 89 | 154 | 7.0 | 11.0 | 0.00 | 0.00 | 0.00 | 69 | 1012.4 |
| 20260509214845 | 89 | 124 | 7.0 | 12.0 | 0.00 | 0.00 | 0.00 | 68 | 1012.3 |
| 20260509214330 | 89 | 124 | 4.0 | 12.0 | 0.00 | 0.00 | 0.00 | 68 | 1012.3 |
| 20260509213824 | 89 | 134 | 7.0 | 16.0 | 0.00 | 0.00 | 0.00 | 68 | 1012.4 |
| 20260509213335 | 89 | 132 | 7.0 | 13.0 | 0.00 | 0.00 | 0.00 | 70 | 1012.5 |
| 20260509212838 | 89 | 127 | 9.0 | 14.0 | 0.00 | 0.00 | 0.00 | 69 | 1012.3 |
| 20260509212332 | 89 | 105 | 8.0 | 13.0 | 0.00 | 0.00 | 0.00 | 69 | 1012.3 |
| 20260509211823 | 89 | 142 | 7.0 | 12.0 | 0.00 | 0.00 | 0.00 | 71 | 1012.4 |
| 20260509211327 | 89 | 146 | 5.0 | 11.0 | 0.00 | 0.00 | 0.00 | 71 | 1012.3 |
| 20260509210821 | 89 | 120 | 6.0 | 12.0 | 0.00 | 0.00 | 0.00 | 71 | 1012.4 |
| 20260509210332 | 90 | 142 | 5.0 | 12.0 | 0.00 | 0.00 | 0.00 | 70 | 1012.4 |
| 20260509205836 | 89 | 162 | 7.0 | 14.0 | 0.00 | 0.00 | 0.00 | 71 | 1012.5 |
| 20260509205347 | 89 | 143 | 8.0 | 15.0 | 0.00 | 0.00 | 0.00 | 71 | 1012.3 |
| 20260509204831 | 89 | 127 | 10.0 | 15.0 | 0.00 | 0.00 | 0.00 | 71 | 1012.3 |
| 20260509204321 | 90 | 111 | 9.0 | 14.0 | 0.00 | 0.00 | 0.00 | 70 | 1012.3 |
| 20260509203828 | 90 | 152 | 10.0 | 14.0 | 0.00 | 0.00 | 0.00 | 69 | 1012.4 |
| 20260509203328 | 91 | 127 | 5.0 | 14.0 | 0.00 | 0.00 | 0.00 | 70 | 1012.3 |
| 20260509202821 | 90 | 130 | 8.0 | 14.0 | 0.00 | 0.00 | 0.00 | 70 | 1012.4 |
| 20260509202324 | 91 | 111 | 6.0 | 11.0 | 0.00 | 0.00 | 0.00 | 71 | 1012.3 |
| 20260509201835 | 91 | 158 | 6.0 | 13.0 | 0.00 | 0.00 | 0.00 | 70 | 1012.4 |
| 20260509201328 | 91 | 72 | 6.0 | 13.0 | 0.00 | 0.00 | 0.00 | 72 | 1012.4 |
| 20260509200837 | 91 | 160 | 7.0 | 12.0 | 0.00 | 0.00 | 0.00 | 71 | 1012.5 |
| 20260509200327 | 91 | 120 | 7.0 | 10.0 | 0.00 | 0.00 | 0.00 | 70 | 1012.6 |
| 20260509195858 | 91 | 123 | 6.0 | 11.0 | 0.00 | 0.00 | 0.00 | 71 | 1012.7 |
| 20260509195347 | 91 | 113 | 7.0 | 11.0 | 0.00 | 0.00 | 0.00 | 71 | 1012.6 |
| 20260509194832 | 91 | 134 | 5.0 | 11.0 | 0.00 | 0.00 | 0.00 | 72 | 1012.8 |
| 20260509194327 | 91 | 121 | 6.0 | 10.0 | 0.00 | 0.00 | 0.00 | 71 | 1012.9 |
| 20260509193841 | 91 | 162 | 5.0 | 13.0 | 0.00 | 0.00 | 0.00 | 71 | 1012.9 |
| 20260509193325 | 91 | 129 | 3.0 | 13.0 | 0.00 | 0.00 | 0.00 | 72 | 1012.9 |
| 20260509192835 | 91 | 102 | 3.0 | 8.0 | 0.00 | 0.00 | 0.00 | 71 | 1013.0 |
| 20260509192333 | 91 | 121 | 4.0 | 11.0 | 0.00 | 0.00 | 0.00 | 72 | 1013.0 |
| 20260509191845 | 91 | 122 | 4.0 | 11.0 | 0.00 | 0.00 | 0.00 | 70 | 1013.1 |
| 20260509191338 | 91 | 143 | 4.0 | 8.0 | 0.00 | 0.00 | 0.00 | 71 | 1013.1 |
| 20260509190827 | 90 | 115 | 5.0 | 9.0 | 0.00 | 0.00 | 0.00 | 73 | 1013.2 |
| 20260509190340 | 90 | 114 | 5.0 | 11.0 | 0.00 | 0.00 | 0.00 | 72 | 1013.2 |
| 20260509185826 | 90 | 133 | 5.0 | 11.0 | 0.00 | 0.00 | 0.00 | 72 | 1013.4 |
| 20260509185320 | 90 | 116 | 5.0 | 10.0 | 0.00 | 0.00 | 0.00 | 72 | 1013.4 |
| 20260509184841 | 89 | 196 | 2.0 | 11.0 | 0.00 | 0.00 | 0.00 | 73 | 1013.4 |
| 20260509184346 | 89 | 97 | 7.0 | 12.0 | 0.00 | 0.00 | 0.00 | 74 | 1013.5 |
| 20260509183833 | 90 | 123 | 9.0 | 13.0 | 0.00 | 0.00 | 0.00 | 71 | 1013.5 |
| 20260509183327 | 90 | 134 | 6.0 | 13.0 | 0.00 | 0.00 | 0.00 | 70 | 1013.4 |
| 20260509182845 | 91 | 167 | 5.0 | 11.0 | 0.00 | 0.00 | 0.00 | 71 | 1013.5 |
| 20260509182336 | 91 | 121 | 5.0 | 10.0 | 0.00 | 0.00 | 0.00 | 71 | 1013.7 |
| 20260509181819 | 91 | 160 | 6.0 | 10.0 | 0.00 | 0.00 | 0.00 | 72 | 1013.7 |
| 20260509181326 | 90 | 182 | 4.0 | 10.0 | 0.00 | 0.00 | 0.00 | 72 | 1013.8 |
| 20260509180819 | 91 | 128 | 6.0 | 10.0 | 0.00 | 0.00 | 0.00 | 71 | 1013.9 |
| 20260509180351 | 90 | 133 | 5.0 | 11.0 | 0.00 | 0.00 | 0.00 | 72 | 1014.0 |
| 20260509175823 | 90 | 146 | 6.0 | 11.0 | 0.00 | 0.00 | 0.00 | 71 | 1013.9 |
| 20260509175337 | 90 | 127 | 6.0 | 10.0 | 0.00 | 0.00 | 0.00 | 71 | 1013.9 |
| 20260509174827 | 91 | 147 | 6.0 | 9.0 | 0.00 | 0.00 | 0.00 | 71 | 1014.0 |
| 20260509174321 | 91 | 134 | 5.0 | 9.0 | 0.00 | 0.00 | 0.00 | 70 | 1014.1 |
| 20260509173835 | 92 | 101 | 3.0 | 7.0 | 0.00 | 0.00 | 0.00 | 66 | 1014.2 |
| 20260509173347 | 92 | 196 | 3.0 | 7.0 | 0.00 | 0.00 | 0.00 | 69 | 1014.3 |
| 20260509172820 | 92 | 182 | 1.0 | 3.0 | 0.00 | 0.00 | 0.00 | 66 | 1014.3 |
| 20260509172331 | 92 | 150 | 0.0 | 0.0 | 0.00 | 0.00 | 0.00 | 70 | 1014.3 |
| 20260509171823 | 92 | 276 | 0.0 | 0.0 | 0.00 | 0.00 | 0.00 | 68 | 1014.4 |
| 20260509171337 | 92 | 139 | 0.0 | 1.0 | 0.00 | 0.00 | 0.00 | 69 | 1014.4 |
| 20260509170829 | 91 | 32 | 0.0 | 5.0 | 0.00 | 0.00 | 0.00 | 71 | 1014.4 |
| 20260509170322 | 90 | 115 | 0.0 | 5.0 | 0.00 | 0.00 | 0.00 | 69 | 1014.5 |
| 20260509165833 | 91 | 120 | 0.0 | 1.0 | 0.00 | 0.00 | 0.00 | 69 | 1014.6 |
| 20260509165325 | 90 | 145 | 0.0 | 2.0 | 0.00 | 0.00 | 0.00 | 68 | 1014.7 |
| 20260509164827 | 90 | 25 | 0.0 | 2.0 | 0.00 | 0.00 | 0.00 | 70 | 1014.8 |
| 20260509164349 | 90 | 183 | 0.0 | 2.0 | 0.00 | 0.00 | 0.00 | 69 | 1014.7 |
| 20260509163352 | 91 | 137 | 0.0 | 4.0 | 0.00 | 0.00 | 0.00 | 68 | 1014.9 |
| 20260509162823 | 91 | 139 | 1.0 | 3.0 | 0.00 | 0.00 | 0.00 | 69 | 1014.9 |
| 20260509162345 | 91 | 114 | 0.0 | 4.0 | 0.00 | 0.00 | 0.00 | 69 | 1014.9 |
| 20260509161828 | 92 | 121 | 1.0 | 3.0 | 0.00 | 0.00 | 0.00 | 66 | 1015.0 |
| 20260509161342 | 93 | 83 | 1.0 | 4.0 | 0.00 | 0.00 | 0.00 | 67 | 1015.1 |
| 20260509160824 | 93 | 149 | 1.0 | 4.0 | 0.00 | 0.00 | 0.00 | 66 | 1015.2 |
| 20260509160329 | 92 | 136 | 1.0 | 4.0 | 0.00 | 0.00 | 0.00 | 68 | 1015.1 |
| 20260509155822 | 92 | 34 | 1.0 | 4.0 | 0.00 | 0.00 | 0.00 | 69 | 1015.2 |
| 20260509155336 | 91 | 144 | 1.0 | 4.0 | 0.00 | 0.00 | 0.00 | 70 | 1015.2 |
| 20260509154828 | 91 | 322 | 1.0 | 3.0 | 0.00 | 0.00 | 0.00 | 69 | 1015.3 |
| 20260509154320 | 92 | 274 | 1.0 | 4.0 | 0.00 | 0.00 | 0.00 | 68 | 1015.3 |
| 20260509153831 | 92 | 293 | 1.0 | 5.0 | 0.00 | 0.00 | 0.00 | 68 | 1015.3 |
| 20260509153323 | 91 | 202 | 2.0 | 5.0 | 0.00 | 0.00 | 0.00 | 69 | 1015.4 |
| 20260509152835 | 91 | 105 | 1.0 | 5.0 | 0.00 | 0.00 | 0.00 | 69 | 1015.4 |
| 20260509152347 | 91 | 144 | 1.0 | 5.0 | 0.00 | 0.00 | 0.00 | 69 | 1015.4 |
| 20260509151831 | 91 | 138 | 1.0 | 4.0 | 0.00 | 0.00 | 0.00 | 68 | 1015.4 |
| 20260509151341 | 92 | 172 | 1.0 | 5.0 | 0.00 | 0.00 | 0.00 | 68 | 1015.3 |
| 20260509150822 | 92 | 134 | 1.0 | 4.0 | 0.00 | 0.00 | 0.00 | 67 | 1015.4 |
| 20260509150340 | 92 | 316 | 2.0 | 6.0 | 0.00 | 0.00 | 0.00 | 68 | 1015.4 |
| 20260509145903 | 91 | 141 | 3.0 | 6.0 | 0.00 | 0.00 | 0.00 | 68 | 1015.4 |
| 20260509145322 | 91 | 125 | 0.0 | 4.0 | 0.00 | 0.00 | 0.00 | 70 | 1015.3 |
| 20260509144834 | 91 | 122 | 0.0 | 3.0 | 0.00 | 0.00 | 0.00 | 70 | 1015.2 |
| 20260509144325 | 90 | 101 | 0.0 | 3.0 | 0.00 | 0.00 | 0.00 | 71 | 1015.2 |
| 20260509143822 | 90 | 131 | 1.0 | 5.0 | 0.00 | 0.00 | 0.00 | 71 | 1015.2 |
| 20260509143339 | 89 | 153 | 2.0 | 7.0 | 0.00 | 0.00 | 0.00 | 72 | 1015.1 |
| 20260509142821 | 88 | 124 | 3.0 | 7.0 | 0.00 | 0.00 | 0.00 | 74 | 1015.2 |
| 20260509142329 | 88 | 132 | 3.0 | 6.0 | 0.00 | 0.00 | 0.00 | 73 | 1015.1 |
| 20260509141836 | 88 | 127 | 2.0 | 5.0 | 0.00 | 0.00 | 0.00 | 74 | 1015.2 |
| 20260509141350 | 88 | 108 | 0.0 | 5.0 | 0.00 | 0.00 | 0.00 | 75 | 1015.1 |
| 20260509140821 | 87 | 148 | 3.0 | 5.0 | 0.00 | 0.00 | 0.00 | 76 | 1015.1 |
| 20260509140331 | 88 | 154 | 3.0 | 6.0 | 0.00 | 0.00 | 0.00 | 75 | 1015.0 |
| 20260509135830 | 88 | 149 | 2.0 | 7.0 | 0.00 | 0.00 | 0.00 | 76 | 1014.9 |
| 20260509135324 | 88 | 148 | 2.0 | 6.0 | 0.00 | 0.00 | 0.00 | 76 | 1014.9 |
| 20260509134822 | 88 | 203 | 2.0 | 5.0 | 0.00 | 0.00 | 0.00 | 77 | 1014.7 |
| 20260509134333 | 87 | 179 | 2.0 | 5.0 | 0.00 | 0.00 | 0.00 | 78 | 1014.8 |
| 20260509133822 | 87 | 159 | 1.0 | 7.0 | 0.00 | 0.00 | 0.00 | 79 | 1014.7 |
| 20260509133355 | 86 | 131 | 2.0 | 7.0 | 0.00 | 0.00 | 0.00 | 79 | 1014.8 |
| 20260509132853 | 86 | 84 | 2.0 | 7.0 | 0.00 | 0.00 | 0.00 | 79 | 1014.7 |
| 20260509132343 | 85 | 146 | 4.0 | 8.0 | 0.00 | 0.00 | 0.00 | 79 | 1014.9 |
| 20260509131825 | 86 | 128 | 3.0 | 5.0 | 0.00 | 0.00 | 0.00 | 79 | 1014.9 |
| 20260509131333 | 86 | 177 | 1.0 | 6.0 | 0.00 | 0.00 | 0.00 | 80 | 1014.9 |
| 20260509130836 | 85 | 122 | 2.0 | 6.0 | 0.00 | 0.00 | 0.00 | 80 | 1014.9 |
| 20260509130346 | 84 | 115 | 2.0 | 5.0 | 0.00 | 0.00 | 0.00 | 81 | 1014.8 |
| 20260509125834 | 83 | 169 | 1.0 | 6.0 | 0.00 | 0.00 | 0.00 | 82 | 1014.8 |
| 20260509125343 | 83 | 152 | 2.0 | 6.0 | 0.00 | 0.00 | 0.00 | 82 | 1014.8 |
| 20260509124841 | 83 | 136 | 0.0 | 4.0 | 0.00 | 0.00 | 0.00 | 83 | 1014.8 |
| 20260509124330 | 83 | 108 | 1.0 | 4.0 | 0.00 | 0.00 | 0.00 | 83 | 1014.7 |
| 20260509123840 | 82 | 150 | 1.0 | 2.0 | 0.00 | 0.00 | 0.00 | 84 | 1014.7 |
| 20260509123332 | 82 | 298 | 0.0 | 2.0 | 0.00 | 0.00 | 0.00 | 84 | 1014.7 |
| 20260509122824 | 82 | 135 | 0.0 | 2.0 | 0.00 | 0.00 | 0.00 | 85 | 1014.7 |
| 20260509122334 | 82 | 131 | 1.0 | 2.0 | 0.00 | 0.00 | 0.00 | 85 | 1014.8 |
| 20260509121826 | 81 | 150 | 0.0 | 2.0 | 0.00 | 0.00 | 0.00 | 86 | 1014.7 |
| 20260509121323 | 81 | 159 | 0.0 | 2.0 | 0.00 | 0.00 | 0.00 | 88 | 1014.8 |
| 20260509120834 | 80 | 208 | 0.0 | 0.0 | 0.00 | 0.00 | 0.00 | 90 | 1014.8 |
| 20260509120323 | 79 | 209 | 0.0 | 0.0 | 0.00 | 0.00 | 0.00 | 91 | 1014.8 |
| 20260509115834 | 78 | 208 | 0.0 | 0.0 | 0.00 | 0.00 | 0.00 | 91 | 1014.8 |
| 20260509115326 | 78 | 289 | 0.0 | 0.0 | 0.00 | 0.00 | 0.00 | 92 | 1014.8 |
| 20260509114848 | 78 | 289 | 0.0 | 0.0 | 0.00 | 0.00 | 0.00 | 92 | 1014.8 |
| 20260509114321 | 78 | 289 | 0.0 | 0.0 | 0.00 | 0.00 | 0.00 | 92 | 1014.9 |
| 20260509113844 | 78 | 289 | 0.0 | 0.0 | 0.00 | 0.00 | 0.00 | 92 | 1014.9 |
| 20260509113339 | 77 | 289 | 0.0 | 0.0 | 0.00 | 0.00 | 0.00 | 93 | 1014.8 |
| 20260509112829 | 77 | 289 | 0.0 | 0.0 | 0.00 | 0.00 | 0.00 | 93 | 1014.7 |
| 20260509112323 | 76 | 289 | 0.0 | 0.0 | 0.00 | 0.00 | 0.00 | 93 | 1014.7 |
| 20260509111909 | 76 | 289 | 0.0 | 0.0 | 0.00 | 0.00 | 0.00 | 93 | 1014.7 |
| 20260509111321 | 75 | 289 | 0.0 | 0.0 | 0.00 | 0.00 | 0.00 | 93 | 1014.7 |
| 20260509110823 | 75 | 289 | 0.0 | 0.0 | 0.00 | 0.00 | 0.00 | 92 | 1014.6 |
| 20260509110337 | 75 | 289 | 0.0 | 0.0 | 0.00 | 0.00 | 0.00 | 92 | 1014.7 |
| 20260509105829 | 75 | 289 | 0.0 | 0.0 | 0.00 | 0.00 | 0.00 | 92 | 1014.7 |
| 20260509105324 | 75 | 289 | 0.0 | 0.0 | 0.00 | 0.00 | 0.00 | 92 | 1014.6 |
| 20260509104846 | 75 | 289 | 0.0 | 0.0 | 0.00 | 0.00 | 0.00 | 92 | 1014.6 |
| 20260509104333 | 75 | 289 | 0.0 | 0.0 | 0.00 | 0.00 | 0.00 | 92 | 1014.6 |
| 20260509103843 | 75 | 289 | 0.0 | 0.0 | 0.00 | 0.00 | 0.00 | 92 | 1014.5 |
| 20260509103333 | 75 | 289 | 0.0 | 0.0 | 0.00 | 0.00 | 0.00 | 92 | 1014.6 |
| 20260509102825 | 75 | 289 | 0.0 | 0.0 | 0.00 | 0.00 | 0.00 | 92 | 1014.5 |
| 20260509102338 | 75 | 289 | 0.0 | 0.0 | 0.00 | 0.00 | 0.00 | 92 | 1014.4 |
| 20260509101822 | 75 | 289 | 0.0 | 0.0 | 0.00 | 0.00 | 0.00 | 92 | 1014.4 |
| 20260509101332 | 75 | 289 | 0.0 | 0.0 | 0.00 | 0.00 | 0.00 | 92 | 1014.4 |
| 20260509100840 | 76 | 289 | 0.0 | 0.0 | 0.00 | 0.00 | 0.00 | 92 | 1014.3 |
| 20260509100347 | 76 | 289 | 0.0 | 0.0 | 0.00 | 0.00 | 0.00 | 92 | 1014.5 |
| 20260509095821 | 76 | 289 | 0.0 | 0.0 | 0.00 | 0.00 | 0.00 | 92 | 1014.4 |
| 20260509095344 | 76 | 289 | 0.0 | 0.0 | 0.00 | 0.00 | 0.00 | 92 | 1014.5 |
| 20260509094837 | 76 | 289 | 0.0 | 0.0 | 0.00 | 0.00 | 0.00 | 92 | 1014.4 |
| 20260509094326 | 76 | 289 | 0.0 | 0.0 | 0.00 | 0.00 | 0.00 | 92 | 1014.3 |
| 20260509093841 | 76 | 289 | 0.0 | 0.0 | 0.00 | 0.00 | 0.00 | 92 | 1014.4 |
| 20260509093406 | 76 | 289 | 0.0 | 1.0 | 0.00 | 0.00 | 0.00 | 92 | 1014.3 |
| 20260509092821 | 76 | 289 | 0.0 | 1.0 | 0.00 | 0.00 | 0.00 | 92 | 1014.1 |
| 20260509092407 | 76 | 289 | 0.0 | 0.0 | 0.00 | 0.00 | 0.00 | 92 | 1014.1 |
| 20260509091827 | 76 | 289 | 0.0 | 0.0 | 0.00 | 0.00 | 0.00 | 92 | 1014.3 |
| 20260509091323 | 76 | 289 | 0.0 | 0.0 | 0.00 | 0.00 | 0.00 | 92 | 1014.2 |
| 20260509090837 | 76 | 289 | 0.0 | 0.0 | 0.00 | 0.00 | 0.00 | 92 | 1014.3 |
| 20260509090350 | 76 | 289 | 0.0 | 0.0 | 0.00 | 0.00 | 0.00 | 92 | 1014.2 |
| 20260509085841 | 76 | 289 | 0.0 | 0.0 | 0.00 | 0.00 | 0.00 | 92 | 1014.1 |
| 20260509085330 | 76 | 289 | 0.0 | 0.0 | 0.00 | 0.00 | 0.00 | 92 | 1014.2 |
| 20260509084843 | 76 | 289 | 0.0 | 0.0 | 0.00 | 0.00 | 0.00 | 92 | 1014.1 |
| 20260509084345 | 76 | 289 | 0.0 | 0.0 | 0.00 | 0.00 | 0.00 | 92 | 1014.1 |
| 20260509083835 | 77 | 289 | 0.0 | 0.0 | 0.00 | 0.00 | 0.00 | 92 | 1014.0 |
| 20260509083320 | 77 | 289 | 0.0 | 0.0 | 0.00 | 0.00 | 0.00 | 92 | 1014.1 |
| 20260509082831 | 77 | 289 | 0.0 | 0.0 | 0.00 | 0.00 | 0.00 | 91 | 1014.0 |